Regional Weather Roundup
Issued by NWS Sioux Falls, SD

Home | Current Version | Previous Version | Text Only | Print | Product List | Glossary Off
Versions: 1 2 3 4 5 6 7 8 9 10 11 12 13 14 15 16 17 18 19 20 21 22 23 24 25 26 27 28 29 30 31 32 33 34 35 36 37 38 39 40 41 42 43 44 45 46 47 48 49 50

000
ASUS43 KFSD 290802
RWRFSD

WEATHER ROUNDUP FOR SE SOUTH DAKOTA/SW MINNESOTA/NW IOWA
NATIONAL WEATHER SERVICE SIOUX FALLS SD
300 AM CDT WED JUL 29 2015

NOTE: "FAIR" INDICATES FEW OR NO CLOUDS BELOW 12,000 FEET WITH NO
SIGNIFICANT WEATHER AND OR OBSTRUCTIONS TO VISIBILITY.


SDZ038>040-050-052>070-290900-
SOUTHEAST SOUTH DAKOTA

CITY           SKY/WX    TMP DP  RH WIND       PRES   REMARKS
BROOKINGS      CLEAR     59  50  72 SW8       30.03S
CHAMBERLAIN    NOT AVBL
HURON          CLEAR     61  49  64 W12       30.02F
MADISON        FAIR      57  55  94 SW8       30.04F
MITCHELL       CLEAR     63  52  67 SW8       30.06S
SIOUX FALLS    CLEAR     61  55  81 SW6       30.05F
WINNER         FAIR      62  47  57 W9        30.12F
YANKTON        CLEAR     63  52  67 W6        30.08R
$$

MNZ071-072-080-081-089-090-097-098-290900-
SOUTHWEST MINNESOTA

CITY           SKY/WX    TMP DP  RH WIND       PRES   REMARKS
FAIRMONT       CLEAR     63  54  72 SW7       30.02F
JACKSON        CLEAR     61  55  82 W8        30.04S
LUVERNE        CLEAR     59  54  82 CALM      30.05F
MARSHALL       CLEAR     63  50  63 W13       29.99F
MONTEVIDEO     CLEAR     63  54  72 W10G20    29.96S
PIPESTONE      CLEAR     57  54  88 SW3       30.04F
REDWOOD FALLS  CLEAR     62  54  74 SW10      29.96S
TRACY          CLEAR     63  54  72 SW8       30.01S
WINDOM         CLEAR     59  54  82 SW6       30.03S
WORTHINGTON    CLEAR     59  52  77 SW8       30.06S
$$

IAZ001>003-012>014-020>022-031-032-NEZ013-014-SDZ071-290900-
NORTHWEST IOWA

CITY           SKY/WX    TMP DP  RH WIND       PRES   REMARKS
DENISON        MOCLDY    61  61 100 CALM      30.05R
ESTHERVILLE    CLEAR     60  58  92 W8        30.04S
SIOUX CITY     CLEAR     61  58  90 W5        30.08S
SPENCER        CLEAR     58  55  90 W6        30.06S
$$

ABBREVIATIONS USED IN REMARKS
   TC - TEMPERATURE IN CELSIUS
  WCI - WIND CHILL INDEX
   HX - HEAT INDEX
  VSB - VISIBILITY




USA.gov is the U.S. government's official web portal to all federal, state and local government web resources and services.